contact:dominique.lefevre@mio.osupytheas.fr, maurice.libes@osupytheas.fr, didier.mallarino@osupytheas.fr
Project:EMSO http://www.emso-fr.org/EMSO-France
Depth: 2436.0 m
Title:EMSO Ligure Ouest : Data MII capteur AQUADOPP
Date,Latitude,Longitude,X_East,Y_North,Z_Up,Amplitude_X,Amplitude_Y,Amplitude_Z,Batterie,SoundSpeed,Heading,Pitch,Roll,Pressure,TIS,Speed,Direction
, degrees North, degrees East, m.s-1, m.s-1,m.s-1, 1, 1, 1, Volt, m.s-1, degree, degree, degree, dbar, degree_C, m.s-1, degree
2019-09-17T00:09:04,42.805,6.029,-0.014,-0.011,0.022,101.0,105.0,100.0,13.4,1505.2,323.3,-0.7,1.8,2470.182,13.3,0.017,231.8
2019-09-17T00:12:05,42.805,6.029,0.008,-0.04,-0.016,103.0,105.0,99.0,13.4,1505.3,323.3,-0.7,1.8,2470.113,13.31,0.04,168.7
2019-09-17T00:15:06,42.805,6.029,-0.002,-0.026,-0.042,104.0,105.0,99.0,13.4,1505.3,326.3,-0.7,1.8,2470.057,13.32,0.026,184.4
2019-09-17T00:18:07,42.805,6.029,-0.016,-0.014,0.026,100.0,104.0,100.0,13.4,1505.3,326.6,-0.8,1.8,2470.072,13.32,0.021,228.8
2019-09-17T00:21:08,42.805,6.029,0.036,-0.031,0.0,102.0,104.0,99.0,13.3,1505.3,326.6,-0.7,1.8,2470.094,13.32,0.047,130.7
2019-09-17T00:24:09,42.805,6.029,0.003,-0.031,0.017,104.0,105.0,100.0,13.3,1505.3,327.3,-0.7,1.8,2470.057,13.33,0.031,174.5
2019-09-17T00:27:10,42.805,6.029,0.015,-0.012,-0.022,102.0,104.0,99.0,13.4,1505.3,326.8,-0.7,1.9,2470.104,13.33,0.019,128.7
2019-09-17T00:30:11,42.805,6.029,-0.002,-0.02,-0.001,103.0,104.0,100.0,13.4,1505.3,326.0,-0.7,1.8,2470.053,13.33,0.02,185.7
2019-09-17T00:33:12,42.805,6.029,0.028,-0.007,0.028,102.0,104.0,100.0,13.4,1505.3,326.5,-0.7,1.8,2470.096,13.33,0.028,104.0
2019-09-17T00:36:13,42.805,6.029,0.031,-0.023,0.026,102.0,104.0,98.0,13.3,1505.3,325.4,-0.7,1.8,2470.074,13.33,0.038,126.6
2019-09-17T00:39:14,42.805,6.029,0.018,-0.02,0.003,102.0,104.0,100.0,13.4,1505.3,324.6,-0.7,1.8,2470.082,13.33,0.026,138.0
2019-09-17T00:42:15,42.805,6.029,0.003,-0.03,-0.055,102.0,104.0,99.0,13.4,1505.3,323.6,-0.7,1.8,2470.033,13.33,0.03,174.3
2019-09-17T00:45:16,42.805,6.029,-0.002,-0.009,0.001,102.0,105.0,99.0,13.4,1505.3,323.7,-0.7,1.8,2470.057,13.33,0.009,192.5
2019-09-17T00:48:17,42.805,6.029,-0.043,-0.006,-0.015,102.0,104.0,100.0,13.4,1505.3,323.0,-0.7,1.8,2470.034,13.33,0.043,262.1
2019-09-17T00:51:18,42.805,6.029,-0.031,-0.011,-0.029,104.0,104.0,97.0,13.4,1505.3,324.5,-0.7,1.9,2469.988,13.33,0.032,250.5
2019-09-17T00:54:19,42.805,6.029,-0.012,-0.005,-0.033,105.0,103.0,99.0,13.3,1505.3,325.1,-0.8,1.8,2470.054,13.33,0.013,247.4
2019-09-17T00:57:20,42.805,6.029,-0.02,-0.013,-0.067,102.0,105.0,100.0,13.3,1505.3,327.8,-0.7,1.8,2470.021,13.33,0.023,237.0
2019-09-17T01:00:21,42.805,6.029,-0.058,-0.016,-0.037,102.0,104.0,99.0,13.4,1505.3,324.9,-0.7,1.8,2470.047,13.33,0.06,254.6
2019-09-17T01:03:22,42.805,6.029,-0.013,-0.021,-0.04,102.0,103.0,99.0,13.4,1505.3,326.8,-0.7,1.8,2469.987,13.33,0.024,211.8
2019-09-17T01:06:23,42.805,6.029,-0.012,-0.015,-0.002,100.0,104.0,99.0,13.4,1505.3,328.0,-0.7,1.8,2470.036,13.33,0.019,218.7
2019-09-17T01:09:24,42.805,6.029,-0.026,-0.027,-0.03,101.0,105.0,99.0,13.4,1505.3,325.2,-0.7,1.8,2469.991,13.33,0.037,223.9
2019-09-17T01:12:25,42.805,6.029,-0.012,-0.024,0.015,103.0,104.0,99.0,13.4,1505.3,325.5,-0.7,1.9,2470.014,13.33,0.026,206.6
2019-09-17T01:15:26,42.805,6.029,-0.01,-0.02,-0.007,102.0,104.0,99.0,13.4,1505.3,325.9,-0.7,1.8,2470.02,13.33,0.022,206.6
2019-09-17T01:18:27,42.805,6.029,-0.002,-0.009,0.017,103.0,106.0,101.0,13.4,1505.3,325.3,-0.7,1.9,2470.015,13.33,0.009,192.5
2019-09-17T01:21:28,42.805,6.029,-0.007,-0.026,-0.006,103.0,105.0,99.0,13.4,1505.3,326.0,-0.7,1.8,2469.988,13.33,0.026,195.1
2019-09-17T01:24:29,42.805,6.029,0.007,-0.029,0.009,102.0,106.0,99.0,13.4,1505.3,326.8,-0.7,1.8,2470.019,13.33,0.029,166.4
2019-09-17T01:27:30,42.805,6.029,-0.004,-0.025,0.025,101.0,104.0,102.0,13.4,1505.3,327.9,-0.7,1.8,2469.957,13.33,0.025,189.1
2019-09-17T01:30:31,42.805,6.029,0.04,-0.024,0.066,103.0,106.0,98.0,13.4,1505.3,327.3,-0.7,1.8,2470.027,13.33,0.046,121.0
2019-09-17T01:33:32,42.805,6.029,0.002,-0.007,-0.03,102.0,106.0,98.0,13.3,1505.3,323.5,-0.7,1.9,2469.988,13.33,0.007,164.1
2019-09-17T01:36:33,42.805,6.029,0.022,0.0,0.045,102.0,105.0,98.0,13.3,1505.3,323.8,-0.7,1.8,2470.006,13.33,0.022,90.0
2019-09-17T01:39:34,42.805,6.029,0.035,-0.016,0.035,103.0,103.0,99.0,13.3,1505.3,324.3,-0.7,1.9,2469.974,13.33,0.038,114.6
2019-09-17T01:42:35,42.805,6.029,0.02,-0.013,0.01,104.0,104.0,99.0,13.4,1505.3,328.1,-0.7,1.8,2469.954,13.33,0.023,123.0
2019-09-17T01:45:36,42.805,6.029,0.027,-0.031,0.035,101.0,104.0,99.0,13.3,1505.3,327.5,-0.7,1.9,2469.994,13.33,0.041,138.9
2019-09-17T01:48:37,42.805,6.029,0.011,-0.027,0.023,103.0,104.0,100.0,13.3,1505.3,328.4,-0.7,1.8,2469.992,13.33,0.029,157.8
2019-09-17T01:51:38,42.805,6.029,-0.003,-0.014,0.008,102.0,104.0,99.0,13.4,1505.3,325.3,-0.7,1.8,2470.01,13.33,0.014,192.1
2019-09-17T01:54:39,42.805,6.029,0.012,-0.018,0.016,103.0,104.0,99.0,13.3,1505.3,326.9,-0.7,1.8,2469.97,13.33,0.021,146.3
2019-09-17T01:57:40,42.805,6.029,-0.007,-0.001,0.014,101.0,105.0,99.0,13.4,1505.3,323.6,-0.7,1.8,2469.954,13.33,0.007,261.9
2019-09-17T02:00:41,42.805,6.029,-0.007,-0.015,0.002,101.0,104.0,102.0,13.3,1505.3,326.4,-0.7,1.8,2469.946,13.33,0.016,205.0
2019-09-17T02:03:42,42.805,6.029,-0.026,-0.001,0.024,103.0,104.0,99.0,13.4,1505.3,324.2,-0.7,1.8,2469.988,13.33,0.026,267.8
2019-09-17T02:06:43,42.805,6.029,0.017,-0.015,0.037,101.0,104.0,99.0,13.3,1505.4,326.5,-0.7,1.9,2469.957,13.34,0.022,131.4
2019-09-17T02:09:44,42.805,6.029,-0.008,0.0,-0.015,102.0,104.0,97.0,13.4,1505.4,327.3,-0.7,1.8,2469.977,13.34,0.008,270.0
2019-09-17T02:12:45,42.805,6.029,-0.004,-0.015,-0.019,103.0,104.0,98.0,13.3,1505.4,324.6,-0.7,1.8,2469.954,13.34,0.015,194.9
2019-09-17T02:15:46,42.805,6.029,0.002,-0.015,-0.021,101.0,104.0,100.0,13.4,1505.4,324.5,-0.7,1.8,2469.991,13.34,0.015,172.4
2019-09-17T02:18:47,42.805,6.029,-0.006,-0.014,-0.018,102.0,104.0,99.0,13.4,1505.4,323.0,-0.8,1.8,2469.958,13.34,0.015,203.2
2019-09-17T02:21:48,42.805,6.029,-0.01,0.002,-0.015,101.0,104.0,98.0,13.4,1505.4,325.1,-0.7,1.8,2469.999,13.34,0.01,281.3
2019-09-17T02:24:49,42.805,6.029,0.001,-0.027,0.007,101.0,104.0,99.0,13.4,1505.4,326.5,-0.7,1.8,2469.951,13.34,0.027,177.9
2019-09-17T02:27:50,42.805,6.029,0.0,0.0,0.01,101.0,105.0,99.0,13.4,1505.4,326.9,-0.7,1.8,2469.969,13.34,0.0,0.0
2019-09-17T02:30:51,42.805,6.029,0.007,-0.002,-0.05,102.0,104.0,100.0,13.3,1505.4,326.2,-0.7,1.8,2469.952,13.34,0.007,105.9
2019-09-17T02:33:52,42.805,6.029,-0.014,-0.018,0.016,103.0,104.0,100.0,13.4,1505.4,326.0,-0.8,1.8,2469.947,13.34,0.022,217.9
2019-09-17T02:36:53,42.805,6.029,-0.022,-0.005,-0.018,102.0,104.0,99.0,13.4,1505.4,326.9,-0.7,1.9,2469.996,13.34,0.022,257.2
2019-09-17T02:39:54,42.805,6.029,-0.015,-0.022,-0.03,101.0,102.0,100.0,13.4,1505.4,325.7,-0.7,1.8,2469.936,13.34,0.026,214.3
2019-09-17T02:42:55,42.805,6.029,0.003,-0.008,0.014,103.0,104.0,100.0,13.3,1505.4,326.4,-0.7,1.8,2469.936,13.34,0.008,159.4
2019-09-17T02:45:56,42.805,6.029,-0.015,-0.026,-0.024,103.0,105.0,99.0,13.4,1505.4,325.8,-0.7,1.9,2469.95,13.34,0.03,210.0
2019-09-17T02:48:57,42.805,6.029,-0.028,-0.023,-0.019,101.0,104.0,101.0,13.3,1505.4,326.0,-0.7,1.9,2469.96,13.34,0.036,230.6
2019-09-17T02:51:58,42.805,6.029,-0.029,-0.025,0.005,103.0,105.0,100.0,13.4,1505.4,327.0,-0.7,1.8,2470.028,13.34,0.038,229.2
2019-09-17T02:54:59,42.805,6.029,-0.022,0.003,0.011,103.0,104.0,99.0,13.4,1505.4,326.1,-0.7,1.8,2469.967,13.34,0.022,277.8
2019-09-17T02:58:00,42.805,6.029,0.007,-0.026,-0.001,101.0,105.0,98.0,13.4,1505.4,325.6,-0.7,1.8,2469.948,13.34,0.026,164.9
2019-09-17T03:01:01,42.805,6.029,-0.003,0.017,0.002,102.0,104.0,101.0,13.4,1505.4,325.7,-0.7,1.8,2469.945,13.34,0.017,350.0
2019-09-17T03:04:02,42.805,6.029,-0.032,-0.023,-0.024,102.0,105.0,99.0,13.4,1505.4,325.9,-0.7,1.8,2469.976,13.34,0.039,234.3
2019-09-17T03:07:03,42.805,6.029,-0.016,-0.029,-0.04,102.0,104.0,100.0,13.4,1505.4,326.7,-0.7,1.8,2469.936,13.34,0.033,208.9
2019-09-17T03:10:04,42.805,6.029,0.013,0.0,-0.001,100.0,105.0,98.0,13.4,1505.4,326.8,-0.7,1.8,2469.979,13.34,0.013,90.0
2019-09-17T03:13:05,42.805,6.029,0.01,-0.019,-0.004,102.0,105.0,99.0,13.3,1505.4,327.3,-0.7,1.8,2469.939,13.34,0.021,152.2
2019-09-17T03:16:06,42.805,6.029,0.003,-0.01,0.029,102.0,104.0,99.0,13.4,1505.4,327.0,-0.7,1.8,2469.933,13.34,0.01,163.3
2019-09-17T03:19:07,42.805,6.029,0.001,0.007,0.023,101.0,104.0,99.0,13.3,1505.4,324.3,-0.7,1.8,2469.95,13.34,0.007,8.1
2019-09-17T03:22:08,42.805,6.029,-0.008,-0.009,-0.015,102.0,106.0,99.0,13.3,1505.4,327.6,-0.7,1.8,2469.977,13.34,0.012,221.6
2019-09-17T03:25:09,42.805,6.029,-0.017,-0.012,0.009,103.0,103.0,99.0,13.3,1505.4,326.7,-0.7,1.8,2469.941,13.34,0.02,234.8
2019-09-17T03:28:10,42.805,6.029,-0.009,-0.01,-0.005,101.0,105.0,99.0,13.4,1505.4,323.8,-0.7,1.8,2469.974,13.34,0.013,222.0
2019-09-17T03:31:11,42.805,6.029,0.013,-0.009,0.008,100.0,105.0,100.0,13.4,1505.4,326.4,-0.7,1.8,2469.938,13.34,0.015,124.7
2019-09-17T03:34:12,42.805,6.029,0.009,0.0,0.026,101.0,105.0,98.0,13.3,1505.4,326.5,-0.7,1.8,2469.961,13.34,0.009,90.0
2019-09-17T03:37:13,42.805,6.029,-0.008,-0.014,-0.018,103.0,103.0,100.0,13.4,1505.4,325.4,-0.7,1.8,2469.942,13.34,0.016,209.7
2019-09-17T03:40:14,42.805,6.029,0.003,-0.028,0.021,102.0,104.0,99.0,13.3,1505.4,326.3,-0.7,1.9,2469.926,13.34,0.028,173.9
2019-09-17T03:43:15,42.805,6.029,-0.023,-0.019,0.004,104.0,105.0,99.0,13.4,1505.4,323.7,-0.7,1.9,2469.974,13.34,0.029,230.4
2019-09-17T03:46:16,42.805,6.029,0.007,-0.034,-0.031,100.0,105.0,99.0,13.4,1505.4,325.5,-0.7,1.8,2469.981,13.34,0.034,168.4
2019-09-17T03:49:17,42.805,6.029,-0.004,-0.013,-0.021,101.0,104.0,100.0,13.3,1505.4,325.4,-0.7,1.9,2469.941,13.34,0.013,197.1
2019-09-17T03:52:18,42.805,6.029,0.01,-0.011,-0.011,104.0,106.0,98.0,13.4,1505.4,328.2,-0.7,1.8,2469.975,13.34,0.014,137.7
2019-09-17T03:55:19,42.805,6.029,0.005,-0.025,0.024,102.0,104.0,99.0,13.4,1505.4,326.4,-0.7,1.8,2469.948,13.34,0.025,168.7
2019-09-17T03:58:20,42.805,6.029,-0.008,0.0,-0.003,101.0,104.0,100.0,13.4,1505.4,327.0,-0.7,1.8,2469.975,13.34,0.008,270.0
2019-09-17T04:01:21,42.805,6.029,-0.022,-0.02,-0.008,102.0,105.0,100.0,13.3,1505.4,326.3,-0.8,1.8,2469.975,13.34,0.029,227.7
2019-09-17T04:04:22,42.805,6.029,-0.005,-0.018,-0.002,106.0,105.0,99.0,13.4,1505.4,326.8,-0.7,1.9,2469.97,13.34,0.018,195.5
2019-09-17T04:07:23,42.805,6.029,-0.013,-0.007,-0.011,102.0,105.0,99.0,13.4,1505.4,325.3,-0.7,1.8,2469.962,13.34,0.014,241.7
2019-09-17T04:10:24,42.805,6.029,-0.013,-0.035,-0.028,103.0,105.0,100.0,13.4,1505.4,326.6,-0.7,1.9,2469.98,13.34,0.037,200.4
2019-09-17T04:13:25,42.805,6.029,-0.012,-0.013,-0.009,101.0,106.0,99.0,13.4,1505.4,324.2,-0.7,1.8,2469.954,13.34,0.017,222.7
2019-09-17T04:16:26,42.805,6.029,-0.002,-0.028,-0.024,103.0,105.0,99.0,13.4,1505.4,323.4,-0.7,1.8,2469.957,13.34,0.028,184.1
2019-09-17T04:19:27,42.805,6.029,-0.019,-0.002,0.006,101.0,103.0,99.0,13.4,1505.4,325.8,-0.8,1.8,2469.975,13.34,0.019,264.0
2019-09-17T04:22:28,42.805,6.029,-0.015,-0.014,-0.013,100.0,103.0,99.0,13.4,1505.4,325.7,-0.7,1.8,2469.994,13.34,0.02,227.0
2019-09-17T04:25:29,42.805,6.029,-0.021,-0.017,0.016,102.0,104.0,99.0,13.4,1505.4,327.8,-0.7,1.8,2469.988,13.34,0.027,231.0
2019-09-17T04:28:30,42.805,6.029,-0.028,-0.025,-0.045,102.0,103.0,99.0,13.3,1505.4,328.3,-0.7,1.8,2469.939,13.35,0.037,228.2
2019-09-17T04:31:31,42.805,6.029,0.0,-0.018,-0.048,100.0,104.0,100.0,13.4,1505.4,325.2,-0.7,1.9,2469.993,13.35,0.018,180.0
2019-09-17T04:34:32,42.805,6.029,0.021,-0.019,-0.005,101.0,103.0,99.0,13.4,1505.4,323.7,-0.7,1.8,2469.98,13.35,0.028,132.1
2019-09-17T04:37:33,42.805,6.029,-0.004,-0.001,-0.004,101.0,104.0,99.0,13.4,1505.4,326.2,-0.7,1.8,2469.989,13.35,0.004,256.0
2019-09-17T04:40:34,42.805,6.029,-0.015,-0.008,0.02,103.0,106.0,98.0,13.4,1505.4,324.6,-0.7,1.8,2470.008,13.35,0.017,241.9
2019-09-17T04:43:35,42.805,6.029,-0.011,-0.005,-0.033,101.0,104.0,99.0,13.4,1505.4,324.7,-0.7,1.9,2469.962,13.35,0.012,245.6
2019-09-17T04:46:36,42.805,6.029,-0.035,-0.002,0.005,102.0,103.0,99.0,13.4,1505.4,325.0,-0.7,1.8,2469.954,13.35,0.035,266.7
2019-09-17T04:49:37,42.805,6.029,-0.046,0.001,-0.015,101.0,106.0,98.0,13.4,1505.4,323.1,-0.7,1.8,2469.99,13.35,0.046,271.2
2019-09-17T04:52:38,42.805,6.029,-0.036,-0.025,-0.049,101.0,104.0,100.0,13.4,1505.4,327.0,-0.7,1.8,2469.977,13.35,0.043,235.2
2019-09-17T04:55:39,42.805,6.029,-0.025,-0.026,-0.023,101.0,105.0,99.0,13.3,1505.4,327.3,-0.7,1.8,2469.985,13.35,0.036,223.9
2019-09-17T04:58:40,42.805,6.029,-0.051,-0.017,-0.009,101.0,104.0,99.0,13.3,1505.4,327.8,-0.7,1.8,2469.98,13.35,0.053,251.6
2019-09-17T05:01:41,42.805,6.029,-0.044,-0.027,-0.031,101.0,106.0,99.0,13.4,1505.4,327.8,-0.7,1.8,2469.958,13.35,0.051,238.5
2019-09-17T05:04:42,42.805,6.029,-0.025,-0.02,-0.015,103.0,104.0,98.0,13.4,1505.4,326.8,-0.7,1.9,2469.99,13.35,0.032,231.3
2019-09-17T05:07:43,42.805,6.029,-0.029,-0.024,-0.011,100.0,104.0,99.0,13.4,1505.4,325.9,-0.7,1.8,2470.006,13.35,0.037,230.4
2019-09-17T05:10:44,42.805,6.029,-0.037,-0.01,-0.037,102.0,104.0,97.0,13.4,1505.4,327.2,-0.7,1.8,2470.015,13.35,0.038,254.9
2019-09-17T05:13:45,42.805,6.029,-0.017,0.001,-0.01,101.0,108.0,99.0,13.3,1505.4,326.5,-0.7,1.8,2469.992,13.35,0.017,273.4
2019-09-17T05:16:46,42.805,6.029,-0.045,0.0,-0.045,103.0,104.0,98.0,13.4,1505.4,328.2,-0.7,1.8,2469.959,13.35,0.045,270.0
2019-09-17T05:19:47,42.805,6.029,-0.005,-0.018,0.0,102.0,107.0,98.0,13.3,1505.4,327.2,-0.7,1.8,2470.021,13.35,0.018,195.5
2019-09-17T05:22:48,42.805,6.029,-0.009,-0.01,-0.046,102.0,104.0,98.0,13.4,1505.4,327.8,-0.7,1.8,2470.04,13.35,0.013,222.0
2019-09-17T05:25:49,42.805,6.029,-0.059,-0.014,-0.047,104.0,103.0,100.0,13.3,1505.4,326.9,-0.7,1.9,2469.984,13.35,0.06,256.7
2019-09-17T05:28:50,42.805,6.029,-0.025,-0.014,-0.014,100.0,105.0,99.0,13.3,1505.4,327.4,-0.7,1.9,2469.994,13.34,0.028,240.7
2019-09-17T05:31:51,42.805,6.029,0.009,-0.012,-0.023,100.0,105.0,98.0,13.4,1505.4,327.2,-0.7,1.8,2469.975,13.35,0.015,143.1
2019-09-17T05:34:52,42.805,6.029,-0.024,0.001,-0.036,101.0,105.0,99.0,13.3,1505.4,323.8,-0.7,1.8,2469.97,13.35,0.024,272.4
2019-09-17T05:37:53,42.805,6.029,-0.025,-0.028,-0.011,102.0,105.0,100.0,13.4,1505.4,323.6,-0.7,1.8,2470.023,13.35,0.037,221.8
2019-09-17T05:40:54,42.805,6.029,-0.036,0.007,-0.017,102.0,104.0,100.0,13.3,1505.4,324.5,-0.7,1.9,2469.979,13.35,0.036,281.0
2019-09-17T05:43:55,42.805,6.029,-0.018,-0.026,-0.027,101.0,106.0,99.0,13.4,1505.4,322.9,-0.7,1.8,2469.978,13.35,0.031,214.7
2019-09-17T05:46:56,42.805,6.029,-0.019,-0.012,0.015,103.0,103.0,98.0,13.3,1505.4,324.5,-0.7,1.8,2469.979,13.35,0.022,237.7
2019-09-17T05:49:57,42.805,6.029,-0.005,-0.027,-0.005,101.0,104.0,98.0,13.3,1505.4,323.3,-0.7,1.8,2470.06,13.34,0.027,190.5
2019-09-17T05:52:58,42.805,6.029,-0.032,-0.007,-0.041,103.0,103.0,100.0,13.4,1505.4,324.6,-0.7,1.8,2470.007,13.34,0.032,257.7
2019-09-17T05:55:59,42.805,6.029,-0.015,-0.007,0.013,99.0,105.0,99.0,13.3,1505.4,323.8,-0.7,1.8,2470.03,13.34,0.016,245.0
2019-09-17T05:59:00,42.805,6.029,-0.026,-0.016,-0.022,101.0,104.0,100.0,13.4,1505.4,328.0,-0.7,1.8,2470.039,13.34,0.03,238.4
2019-09-17T06:02:01,42.805,6.029,-0.005,-0.011,-0.022,102.0,105.0,101.0,13.4,1505.4,326.9,-0.7,1.8,2470.047,13.34,0.012,204.4
2019-09-17T06:05:02,42.805,6.029,-0.005,-0.016,0.027,101.0,104.0,98.0,13.3,1505.4,325.0,-0.7,1.9,2470.002,13.34,0.016,197.4
2019-09-17T06:08:03,42.805,6.029,0.017,-0.012,0.007,99.0,105.0,98.0,13.4,1505.4,326.9,-0.7,1.8,2470.057,13.34,0.02,125.2
2019-09-17T06:11:04,42.805,6.029,-0.012,-0.001,0.043,102.0,102.0,99.0,13.4,1505.4,324.3,-0.7,1.8,2470.018,13.34,0.012,265.2
2019-09-17T06:14:05,42.805,6.029,-0.011,-0.015,0.001,102.0,104.0,98.0,13.4,1505.4,327.4,-0.7,1.8,2470.017,13.34,0.018,216.3
2019-09-17T06:17:06,42.805,6.029,-0.004,-0.016,-0.042,101.0,105.0,99.0,13.3,1505.4,326.8,-0.7,1.9,2470.01,13.34,0.016,194.0
2019-09-17T06:20:07,42.805,6.029,0.015,-0.008,0.031,101.0,104.0,99.0,13.4,1505.4,327.6,-0.7,1.8,2470.043,13.34,0.017,118.1
2019-09-17T06:23:08,42.805,6.029,0.017,0.005,-0.007,102.0,105.0,103.0,13.3,1505.4,326.7,-0.7,1.8,2470.023,13.34,0.017,73.6
2019-09-17T06:26:09,42.805,6.029,0.017,-0.019,0.01,101.0,104.0,100.0,13.4,1505.4,328.4,-0.7,1.8,2470.002,13.34,0.025,138.2
2019-09-17T06:29:10,42.805,6.029,0.002,-0.017,0.0,102.0,104.0,101.0,13.4,1505.4,324.6,-0.7,1.8,2470.073,13.34,0.017,173.3
2019-09-17T06:32:11,42.805,6.029,0.017,-0.003,0.066,101.0,104.0,99.0,13.3,1505.4,327.8,-0.7,1.8,2470.048,13.34,0.017,100.0
2019-09-17T06:35:12,42.805,6.029,0.021,-0.002,0.05,103.0,104.0,99.0,13.3,1505.4,325.5,-0.7,1.8,2470.065,13.34,0.021,95.4
2019-09-17T06:38:13,42.805,6.029,0.015,-0.03,0.052,102.0,104.0,100.0,13.4,1505.4,324.4,-0.7,1.8,2470.054,13.34,0.033,153.4
2019-09-17T06:41:14,42.805,6.029,0.033,-0.003,0.034,102.0,105.0,99.0,13.4,1505.4,325.4,-0.7,1.9,2470.043,13.34,0.033,95.2
2019-09-17T06:44:15,42.805,6.029,0.007,-0.007,0.007,101.0,104.0,99.0,13.4,1505.4,327.0,-0.7,1.8,2470.065,13.34,0.009,135.0
2019-09-17T06:47:16,42.805,6.029,0.014,-0.002,0.007,102.0,103.0,99.0,13.4,1505.4,322.9,-0.7,1.8,2470.04,13.34,0.014,98.1
2019-09-17T06:50:17,42.805,6.029,0.035,-0.01,0.007,102.0,105.0,99.0,13.3,1505.4,326.6,-0.7,1.8,2470.104,13.34,0.036,105.9
2019-09-17T06:53:18,42.805,6.029,0.015,-0.012,0.013,103.0,103.0,98.0,13.3,1505.4,326.1,-0.8,1.8,2470.067,13.34,0.019,128.7
2019-09-17T06:56:19,42.805,6.029,-0.005,-0.017,0.006,104.0,104.0,99.0,13.4,1505.4,328.4,-0.7,1.8,2470.042,13.34,0.017,196.4
2019-09-17T06:59:20,42.805,6.029,0.009,-0.016,0.037,103.0,106.0,99.0,13.4,1505.4,324.7,-0.7,1.9,2470.1,13.34,0.018,150.6
2019-09-17T07:02:21,42.805,6.029,0.019,-0.009,0.007,103.0,104.0,98.0,13.4,1505.4,326.1,-0.7,1.8,2470.122,13.34,0.021,115.3
2019-09-17T07:05:22,42.805,6.029,-0.005,-0.011,0.014,103.0,104.0,101.0,13.4,1505.4,323.6,-0.7,1.8,2470.074,13.34,0.012,204.4
2019-09-17T07:08:23,42.805,6.029,0.008,-0.013,-0.023,103.0,104.0,99.0,13.4,1505.3,324.8,-0.7,1.8,2470.076,13.33,0.015,148.4
2019-09-17T07:11:24,42.805,6.029,0.012,-0.005,0.032,101.0,105.0,99.0,13.4,1505.3,327.7,-0.7,1.8,2470.109,13.33,0.013,112.6
2019-09-17T07:14:25,42.805,6.029,-0.02,0.009,0.012,103.0,102.0,99.0,13.4,1505.3,326.0,-0.7,1.9,2470.082,13.33,0.021,294.2
2019-09-17T07:17:26,42.805,6.029,-0.039,-0.01,-0.017,102.0,106.0,100.0,13.3,1505.3,327.2,-0.7,1.8,2470.079,13.33,0.04,255.6
2019-09-17T07:20:27,42.805,6.029,-0.035,-0.008,-0.012,103.0,104.0,98.0,13.3,1505.3,326.8,-0.7,1.8,2470.122,13.33,0.035,257.1
2019-09-17T07:23:28,42.805,6.029,-0.032,-0.015,-0.033,101.0,103.0,99.0,13.4,1505.3,324.0,-0.7,1.8,2470.088,13.33,0.035,244.9
2019-09-17T07:26:29,42.805,6.029,-0.021,0.01,0.018,101.0,104.0,99.0,13.4,1505.3,327.1,-0.7,1.8,2470.092,13.33,0.023,295.5
2019-09-17T07:29:30,42.805,6.029,-0.035,-0.01,0.002,103.0,105.0,98.0,13.4,1505.3,327.5,-0.7,1.8,2470.109,13.33,0.036,254.1
2019-09-17T07:32:31,42.805,6.029,-0.008,0.004,-0.029,101.0,105.0,99.0,13.4,1505.3,325.4,-0.7,1.8,2470.156,13.33,0.008,296.6
2019-09-17T07:35:32,42.805,6.029,0.001,-0.02,-0.028,102.0,104.0,98.0,13.4,1505.3,324.2,-0.7,1.8,2470.07,13.33,0.02,177.1
2019-09-17T07:38:33,42.805,6.029,-0.016,-0.015,-0.014,101.0,104.0,100.0,13.4,1505.3,324.5,-0.8,1.8,2470.081,13.33,0.021,226.9
2019-09-17T07:41:34,42.805,6.029,-0.017,0.005,-0.027,102.0,106.0,99.0,13.3,1505.3,325.4,-0.8,1.8,2470.117,13.33,0.017,286.4
2019-09-17T07:44:35,42.805,6.029,0.009,-0.019,-0.016,101.0,105.0,100.0,13.4,1505.3,326.0,-0.7,1.8,2470.09,13.33,0.021,154.7
2019-09-17T07:47:36,42.805,6.029,0.007,0.004,-0.015,102.0,106.0,99.0,13.4,1505.3,326.7,-0.7,1.8,2470.132,13.33,0.008,60.3
2019-09-17T07:50:37,42.805,6.029,-0.011,-0.012,0.019,100.0,105.0,98.0,13.3,1505.3,324.6,-0.8,1.8,2470.175,13.33,0.016,222.5
2019-09-17T07:53:38,42.805,6.029,-0.025,-0.018,-0.009,101.0,104.0,98.0,13.4,1505.3,324.5,-0.7,1.8,2470.148,13.33,0.03,234.2
2019-09-17T07:56:39,42.805,6.029,-0.01,0.001,0.0,103.0,104.0,99.0,13.3,1505.3,325.0,-0.7,1.8,2470.117,13.33,0.01,275.7
2019-09-17T07:59:40,42.805,6.029,-0.022,-0.003,-0.011,102.0,105.0,99.0,13.4,1505.3,326.8,-0.7,1.8,2470.102,13.33,0.022,262.2
2019-09-17T08:02:41,42.805,6.029,-0.032,0.001,-0.01,102.0,104.0,98.0,13.3,1505.3,326.1,-0.7,1.9,2470.123,13.33,0.032,271.8
2019-09-17T08:05:42,42.805,6.029,-0.017,-0.024,-0.039,101.0,104.0,98.0,13.3,1505.3,324.7,-0.7,1.8,2470.127,13.33,0.029,215.3
2019-09-17T08:08:43,42.805,6.029,-0.03,-0.003,-0.023,101.0,104.0,99.0,13.4,1505.3,324.0,-0.7,1.8,2470.12,13.33,0.03,264.3
2019-09-17T08:11:44,42.805,6.029,-0.009,0.0,0.008,102.0,104.0,99.0,13.4,1505.3,324.6,-0.7,1.8,2470.101,13.33,0.009,270.0
2019-09-17T08:14:45,42.805,6.029,-0.005,-0.016,-0.013,102.0,105.0,99.0,13.4,1505.3,324.0,-0.7,1.9,2470.155,13.33,0.016,197.4
2019-09-17T08:17:46,42.805,6.029,-0.03,-0.019,-0.01,101.0,105.0,99.0,13.4,1505.3,326.3,-0.7,1.9,2470.161,13.33,0.035,237.7
2019-09-17T08:20:47,42.805,6.029,-0.029,0.003,0.001,102.0,104.0,98.0,13.4,1505.3,328.7,-0.7,1.8,2470.075,13.33,0.029,275.9
2019-09-17T08:23:48,42.805,6.029,-0.026,0.007,-0.005,102.0,104.0,99.0,13.4,1505.3,326.5,-0.7,1.8,2470.125,13.33,0.026,285.1
2019-09-17T08:26:49,42.805,6.029,0.021,-0.011,0.042,102.0,105.0,99.0,13.4,1505.3,325.4,-0.7,1.8,2470.117,13.33,0.023,117.6
2019-09-17T08:29:50,42.805,6.029,-0.007,-0.02,-0.01,101.0,104.0,99.0,13.3,1505.3,324.4,-0.7,1.8,2470.132,13.33,0.021,199.3
2019-09-17T08:32:51,42.805,6.029,-0.006,-0.034,-0.015,101.0,105.0,98.0,13.4,1505.3,325.1,-0.8,1.8,2470.171,13.33,0.034,190.0
2019-09-17T08:35:52,42.805,6.029,-0.007,-0.003,-0.025,100.0,104.0,99.0,13.4,1505.3,325.3,-0.7,1.9,2470.111,13.33,0.007,246.8
2019-09-17T08:38:53,42.805,6.029,0.003,-0.023,-0.009,101.0,105.0,98.0,13.4,1505.3,326.9,-0.7,1.8,2470.173,13.33,0.023,172.6
2019-09-17T08:41:54,42.805,6.029,0.038,-0.013,0.028,101.0,107.0,98.0,13.4,1505.3,323.0,-0.7,1.9,2470.133,13.33,0.04,108.9
2019-09-17T08:44:55,42.805,6.029,0.014,-0.006,0.029,102.0,103.0,99.0,13.4,1505.3,326.1,-0.7,1.8,2470.108,13.33,0.015,113.2
2019-09-17T08:47:56,42.805,6.029,0.042,-0.009,0.029,101.0,105.0,100.0,13.4,1505.3,323.2,-0.7,1.9,2470.153,13.33,0.042,102.1
2019-09-17T08:50:57,42.805,6.029,0.004,0.005,0.0,101.0,105.0,99.0,13.4,1505.3,324.7,-0.7,1.8,2470.128,13.33,0.006,38.7
2019-09-17T08:53:58,42.805,6.029,0.023,-0.002,0.0,102.0,113.0,98.0,13.3,1505.3,323.7,-0.7,1.8,2470.116,13.33,0.023,95.0
2019-09-17T08:56:59,42.805,6.029,0.016,-0.009,0.002,102.0,105.0,99.0,13.4,1505.3,328.2,-0.7,1.8,2470.128,13.33,0.018,119.4
2019-09-17T09:00:00,42.805,6.029,0.022,-0.008,0.021,102.0,105.0,100.0,13.4,1505.3,326.9,-0.7,1.8,2470.091,13.33,0.023,110.0
2019-09-17T09:03:01,42.805,6.029,0.001,0.011,-0.011,101.0,105.0,99.0,13.4,1505.3,325.8,-0.7,1.9,2470.105,13.33,0.011,5.2
2019-09-17T09:06:02,42.805,6.029,0.019,0.0,0.012,101.0,105.0,98.0,13.3,1505.3,324.8,-0.7,1.8,2470.137,13.33,0.019,90.0
2019-09-17T09:09:03,42.805,6.029,0.015,-0.025,0.016,101.0,105.0,98.0,13.4,1505.3,324.9,-0.7,1.8,2470.1,13.33,0.029,149.0
2019-09-17T09:12:04,42.805,6.029,0.026,-0.017,0.01,101.0,104.0,98.0,13.3,1505.3,327.4,-0.7,1.8,2470.142,13.33,0.031,123.2
2019-09-17T09:15:05,42.805,6.029,0.033,-0.02,0.043,101.0,104.0,98.0,13.3,1505.3,323.7,-0.7,1.9,2470.095,13.33,0.038,121.2
2019-09-17T09:18:06,42.805,6.029,0.032,-0.019,0.005,102.0,105.0,100.0,13.4,1505.3,324.7,-0.7,1.8,2470.098,13.33,0.037,120.7
2019-09-17T09:21:07,42.805,6.029,0.001,-0.032,0.021,102.0,106.0,99.0,13.4,1505.3,325.2,-0.7,1.8,2470.146,13.33,0.032,178.2
2019-09-17T09:24:08,42.805,6.029,0.007,-0.03,0.0,102.0,106.0,98.0,13.4,1505.3,325.1,-0.7,1.8,2470.121,13.33,0.03,166.9
2019-09-17T09:27:09,42.805,6.029,0.004,-0.011,0.003,102.0,108.0,98.0,13.4,1505.3,327.3,-0.7,1.8,2470.118,13.33,0.011,160.0
2019-09-17T09:30:10,42.805,6.029,0.015,0.008,-0.029,101.0,107.0,99.0,13.4,1505.3,326.0,-0.7,1.8,2470.091,13.33,0.017,61.9
2019-09-17T09:33:11,42.805,6.029,-0.013,-0.011,-0.011,102.0,106.0,99.0,13.4,1505.3,325.6,-0.7,1.8,2470.108,13.33,0.017,229.8
2019-09-17T09:36:12,42.805,6.029,-0.02,-0.01,-0.017,102.0,105.0,100.0,13.4,1505.3,324.8,-0.7,1.8,2470.1,13.33,0.022,243.4
2019-09-17T09:39:13,42.805,6.029,0.007,-0.005,0.021,101.0,107.0,99.0,13.4,1505.3,327.1,-0.8,1.8,2470.067,13.33,0.008,125.5